CAPE
0 0 0 0 0 0 0 0 0 0 0 0 7 0 0 0 0 13 0 1 15 5
0 0 0 0 0 0 0 1 0 0 0 0 1 0 0 0 0 0 16 2 6 2
0 0 0 0 0 0 0 0 0 0 0 0 1 0 0 0 0 0 3 4 1 1
0 0 0 0 0 0 0 0 0 0 0 0 0 0 0 0 0 1 0 0 0 2
0 0 0 0 0 0 0 0 0 0 0 0 0 0 0 0 0 0 0 0 0 2
0 0 0 0 0 0 0 0 0 0 0 0 0 1 0 0 0 0 0 0 0 1
0 0 0 0 0 0 0 0 0 0 0 0 0 5 6 0 0 0 0 0 0 3
0 0 0 0 0 0 0 0 0 0 0 0 0 5 3 0 0 0 0 0 0 0
0 0 0 0 0 0 0 0 0 0 0 0 0 9 12 2 0 0 3 0 0 0
0 0 0 0 0 0 0 0 0 0 0 0 0 11 10 6 0 0 0 2 0 1
0 0 0 0 0 0 0 0 0 0 0 0 0 9 7 5 0 0 0 0 0 0
0 0 0 0 0 0 0 0 0 0 0 0 0 9 22 4 0 0 0 0 11 9
0 0 0 0 0 0 0 0 0 0 0 0 0 4 22 14 3 1 1 0 5 15
0 0 0 0 0 0 0 0 0 0 0 0 0 0 12 28 15 6 2 18 8 9
CIN
-0 -0 -0 -0 -0 -0 -0 -0 -0 -0 -0 -0 -1 -0 -0 -1 -0 -0 -0 -0 -0 -0
-0 -0 -0 -0 -0 -0 -0 -3 -0 -0 -0 -0 -1 -0 -0 -0 -0 -0 -1 -0 -0 -0
-0 -0 -0 -0 -0 -0 -0 -0 -0 -0 -0 -0 -1 -0 -0 -0 -0 -0 -1 -1 -0 -0
-0 -0 -0 -0 -0 -0 -0 -0 -0 -0 -0 -0 -0 -0 -0 -0 -0 -0 -0 -0 -0 -0
-0 -0 -0 -0 -0 -0 -0 -0 -0 -0 -0 -0 -0 -0 -0 -0 -0 -0 -0 -0 -0 -0
-0 -0 -0 -0 -0 -0 -0 -0 -0 -0 -0 -0 -0 -0 -0 -0 -0 -0 -0 -0 -0 -0
-0 -0 -0 -0 -0 -0 -20 -0 -0 -0 -0 -0 -0 -0 -0 -0 -0 -0 -0 -0 -0 -0
-0 -0 -0 -0 -0 -0 -0 -0 -7 -0 -0 -0 -0 -0 -0 -0 -0 -0 -0 -0 -0 -0
-0 -0 -0 -0 -0 -0 -0 -0 -0 -0 -0 -0 -0 -0 -0 -0 -0 -0 -0 -0 -0 -0
-0 -0 -0 -0 -0 -0 -0 -0 -0 -0 -0 -0 -0 -0 -0 -0 -0 -0 -0 -1 -0 -0
-0 -0 -0 -0 -0 -0 -0 -0 -0 -0 -0 -0 -0 -0 -0 -0 -0 -0 -0 -0 -0 -0
-0 -0 -0 -0 -0 -0 -0 -0 -0 -0 -0 -0 -0 -0 -0 -0 -1 -0 -0 -0 -0 -0
-0 -0 -0 -0 -0 -0 -0 -0 -0 -0 -0 -0 -0 -0 -0 -0 -0 -0 -0 -0 -0 -0
-0 -0 -0 -0 -0 -0 -0 -0 -0 -0 -0 -0 -0 -0 -0 -0 -0 -0 -0 -0 -0 -0
Wind_Speed
6 4 4 5 4 5 5 5 6 6 10 11 10 14 12 9 9 10 7 13 10 9
6 6 6 6 5 4 5 7 7 7 10 11 9 14 13 9 11 11 6 10 11 8
6 6 6 6 6 7 6 6 6 8 9 10 9 14 13 11 12 12 7 7 12 10
6 6 6 6 6 6 6 5 5 7 8 9 11 14 13 13 12 13 11 7 12 10
6 6 6 7 7 7 6 6 6 7 7 8 11 15 14 15 14 12 10 8 10 11
7 6 7 7 8 7 6 6 7 6 7 7 11 15 16 15 15 13 7 6 11 9
7 6 7 7 7 7 8 7 7 6 6 8 11 14 16 15 15 16 5 9 12 12
6 6 7 7 9 9 8 8 8 6 5 8 11 14 17 14 14 14 9 10 12 12
6 5 7 7 9 9 9 8 8 6 5 6 10 28 28 21 13 13 7 10 11 12
8 7 8 9 9 10 11 7 10 7 7 6 13 29 28 27 12 12 11 9 8 11
8 7 8 9 9 11 9 8 9 8 8 9 13 28 29 25 12 11 11 10 11 12
8 8 9 10 10 10 10 10 11 10 12 12 13 28 28 20 11 11 11 11 10 13
6 6 8 8 9 9 9 10 9 11 12 18 14 24 27 22 10 12 10 10 11 19
7 4 6 7 7 9 9 8 10 10 10 12 15 16 27 26 12 11 10 10 10 9
Wind_Direction
2 16 22 17 6 351 346 332 347 0 351 346 353 348 343 334 334 326 350 334 324 338
19 28 21 14 356 333 326 349 11 359 350 342 351 349 344 337 329 329 327 333 331 351
18 27 18 10 350 339 333 354 4 352 344 337 354 349 344 337 329 331 323 341 336 1
15 24 18 1 343 335 341 354 339 336 336 346 358 349 341 337 332 327 327 336 348 3
12 22 14 357 343 336 345 334 329 327 337 9 357 351 346 338 333 328 328 328 3 4
11 18 6 350 339 334 328 322 322 330 349 15 0 353 347 343 338 332 321 353 3 16
12 19 356 338 331 329 321 320 323 334 18 14 1 3 352 347 344 346 14 21 7 8
10 16 347 339 332 326 325 332 346 1 46 20 11 8 0 354 352 358 19 24 9 5
5 7 344 329 329 327 329 338 357 12 26 35 13 10 7 7 356 357 15 22 12 2
4 1 346 336 336 343 349 356 4 8 14 29 12 12 9 8 1 357 359 17 3 359
359 349 345 345 350 1 355 3 5 13 13 30 12 10 8 10 359 358 352 2 359 356
349 352 359 2 9 5 3 14 10 13 12 21 12 7 6 9 0 359 348 355 353 5
344 5 23 12 18 6 9 11 5 9 13 10 7 359 7 9 358 359 352 352 11 2
335 32 44 28 27 9 5 0 8 7 9 5 3 357 8 8 8 4 351 9 7 0